www.pogodaiklimat.ru

Погода и климат >> Архив погоды >> Корея >> Тхонъён


ПОГОДА в Тхонъёне

  • Прогноз погоды в Тхонъёне
  • Монитор погоды в Тхонъёне

АРХИВ ПОГОДЫ в Тхонъёне

Время (UTC), дата Ветер
(напр.,м/с)
 
Видим.   Явления Облачность Т
(С)
Тd
(С)
f
(%)
Тe
(С)
Тes
(С)
Комфортность P
(гПа)
Po
(гПа)
Тmin
(С)
Tmax
(С)
R
(мм)
R24
(мм)
S
(см)
06 12.06 Ю 4 14 км 1/0
[]
+22.3 +16.3 69 +27 +36 душно 1010.3 1006.6
09 12.06 16 км н/о +21.3 +15.1 68 +24 +25 комфорт 1010.3 1006.6
12 12.06 ЮВ 2 20 км 6/6 600 м
[]
+18.5 +14.5 78 +20 +20 1011.5 1007.7 +23.5
15 12.06 СВ 3 14 км 8/5
[]
+17.2 +14.2 83 +17 +17 1012.2 1008.4
18 12.06 С 2 19 км 1/0
[]
+16.8 +14.4 86 +17 +17 1011.5 1007.7
21 12.06 штиль 0 14 км ясно +16.5 +14.8 90 +16 +17 1011.7 1007.9
00 13.06 Ю 3 18 км 3/0
[]
+19.8 +14.5 71 +22 +30 комфорт 1012.2 1008.5 +16.1
03 13.06 С 3 14 км ясно +24.5 +16.2 60 +28 +45 душно 1010.9 1007.2
06 13.06 ЮВ 3 20 км 8/0
[]
+24.6 +14.0 52 +27 +34 жарко 1009.9 1006.2
09 13.06 В 2 19 км 8/0
[]
+22.9 +13.3 55 +26 +27 жарко 1009.1 1005.4
12 13.06 Ю 1 20 км 9/0
[]
+20.5 +15.9 75 +25 +25 комфорт 1010.2 1006.4 +26.6
15 13.06 штиль 0 н/о 9/0
[]
+18.7 +15.9 84 +20 +20 1009.8 1006.0
18 13.06 С 2 н/о ?/? +18.5 +16.2 86 +20 +20 1008.3 1004.5
21 13.06 н/о 10/10 1500 м
[]
+19.2 +17.3 89 1007.9 1004.2
00 14.06 С 2 11 км ?/? +20.4 +17.5 83 +24 +29 комфорт 1006.8 1003.1 +18.3
03 14.06 С 4 16 км 10/5 2000 м
[]
+20.4 +17.0 81 +24 +27 комфорт 1005.6 1001.9
06 14.06 С 4 4700 м ?/? +18.9 +17.9 94 +20 +20 1004.2 1000.5
09 14.06 С 3 6000 м 10//
[]
+18.2 +17.0 93 +19 +20 1003.9 1000.2
12 14.06 С 5 7000 м ?/? +18.2 +16.8 92 +18 +18 1003.5 999.8 +21.9 12
15 14.06 С 4 7000 м 10/3
[]
+17.4 +16.5 94 +17 +17 1002.3 998.5
18 14.06 штиль 0 9000 м 10//
[]
+17.2 +16.0 93 +17 +17 1000.7 996.9 1
21 14.06 С 1 3900 м 9/8
[]
+16.8 +16.3 97 +18 +18 1000.5 996.7
00 15.06 С 5 11 км 8/0
[]
+20.8 +17.6 82 +25 +28 комфорт 1000.1 996.4 +16.6 1
03 15.06 З 1 12 км 1/1 1000 м
[]
+24.6 +16.5 61 +28 +50 душно 998.9 995.3
06 15.06 ЮВ 3 10 км 8/0
[]
+22.8 +17.2 71 +28 +35 душно 997.5 993.8
09 15.06 ЮВ 2 7000 м 6/1 1500 м
[]
+22.4 +17.7 75 +27 +29 душно 997.0 993.3
12 15.06 В 2 8000 м 3/0
[]
+20.4 +17.4 83 +24 +24 комфорт 999.4 995.7 +26.9 0.0
15 15.06 штиль 0 15 км 1/0
[]
+18.6 +15.8 84 +19 +19 1001.7 998.0
18 15.06 штиль 0 8000 м 3/0
[]
+18.1 +16.6 91 +18 +18 1002.3 998.6
21 15.06 штиль 0 7000 м 3/0
[]
+17.6 +16.4 93 +18 +18 1004.5 1000.7
00 16.06 Ю 3 15 км ясно +21.3 +15.5 70 +25 +34 комфорт 1006.2 1002.5 +17.3 0.0
03 16.06 ЮВ 4 13 км 4/0
[]
+22.9 +17.5 72 +28 +40 душно 1007.2 1003.5
06 16.06 Ю 5 15 км 9/0
[]
+23.0 +16.9 69 +28 +32 душно 1008.4 1004.7
09 16.06 ЮВ 3 19 км 8/4 600 м
[]
+21.1 +16.4 75 +25 +25 комфорт 1009.4 1005.7
12 16.06 В 2 20 км 8/8 600 м
[]
+19.7 +15.5 77 +22 +22 комфорт 1011.4 1007.7 +24.1 0.0
15 16.06 штиль 0 20 км 9// 600 м
[]
+19.5 +15.9 80 +21 +21 комфорт 1012.4 1008.7
18 16.06 штиль 0 20 км 8/4 600 м
[]
+18.8 +15.6 82 +20 +20 1012.1 1008.3
21 16.06 ЮВ 1 19 км 8/4
[]
+18.3 +16.0 86 +20 +20 1013.2 1009.4
00 17.06 Ю 4 20 км 8/8 600 м
[]
+20.6 +16.4 77 +24 +25 комфорт 1013.9 1010.1 +18.0 0.0
03 17.06 Ю 2 19 км 8/3 600 м
[]
+23.4 +17.6 70 +29 +38 душно 1013.7 1010.0
06 17.06 17 км н/о +22.9 +17.1 70 +28 +34 душно 1012.7 1009.0
09 17.06 ЮВ 3 19 км 5/0
[]
+20.8 +17.2 80 +25 +26 комфорт 1011.8 1008.0
12 17.06 Ю 2 20 км 6/0
[]
+20.2 +16.4 79 +24 +24 комфорт 1013.1 1009.3 +23.8
15 17.06 Ю 4 19 км 8/0
[]
+19.3 +16.7 85 +21 +21 комфорт 1013.1 1009.3
18 17.06 ЮВ 1 12 км 8/0
[]
+18.7 +17.1 90 +21 +21 комфорт 1012.1 1008.3
21 17.06 штиль 0 10 км 10/5
[]
+18.6 +17.4 93 +20 +20 1012.0 1008.2
00 18.06 ЮВ 1 12 км ?/? +20.1 +17.6 86 +24 +24 комфорт 1012.4 1008.6 +18.4
03 18.06 ЮЗ 3 18 км 10/1
[]
+22.6 +16.6 69 +27 +35 душно 1011.8 1008.1
06 18.06 Ю 3 15 км ?/? +23.6 +17.3 68 +27 +33 жарко 1010.2 1006.5
09 18.06 ЮВ 1 10 км 8/0
[]
+22.4 +18.5 79 +28 +29 душно 1009.0 1005.3
12 18.06 Ю 3 8000 м 8/0
[]
+20.7 +17.7 83 +25 +25 комфорт 1010.1 1006.4 +24.1
15 18.06 5000 м н/о +20.1 +17.6 86 +24 +24 комфорт 1010.2 1006.4
18 18.06 ЮВ 1 3000 м 6/0
[]
+19.1 +17.7 92 +22 +22 комфорт 1008.6 1004.9
21 18.06 штиль 0 2400 м 4/0
[]
+18.6 +17.6 94 +20 +20 1008.0 1004.3
00 19.06 Ю 2 н/о 3/0
[]
+21.6 +18.1 80 +26 +35 душно 1007.8 1004.1 +18.1
03 19.06 С 4 8000 м 3/0
[]
+26.6 +18.9 63 +32 +44 очень
душно
1006.8 1003.1

 

Местоположение метеостанции Тхонъён (Корея): широта 34.85 долгота 128.43 высота над уровнем моря 33 м.

В архиве по умолчанию представлена погода в Тхонъёне за последнюю неделю. Архивные данные за месяц целиком и за предыдущие месяцы, начиная с января 2011 года, Вы можете получить, выбрав интересующий диапазон дат из раскрывающегося списка и нажав кнопку "Ввод!".


*Определитесь, кто Вы:
робот инопланетянин человек

Внимание! Время в таблицах - всемирное. Для получения местного времени необходимо прибавить поправку, которая равна 9 ч.

Смотрите также архив погоды в соседних городах и на ближайших метеорологических станциях:

Погода в Масане (Корея) (39 км)
Погода в Чинджу (Корея) (49 км)
Погода в Пусане (Корея) (61 км)
Погода в Йосу (Корея) (64 км)
Погода в Чинхэгу (Корея) (103 км)
Погода в Цусиме (Япония) (108 км)
Погода в Ульсане (Корея) (112 км)
Погода в Сунчхоне (Корея) (112 км)
Погода в Тэгу (Корея) (116 км)
Погода в Намвоне (Корея) (117 км)

Пояснения к столбцам:

Ветер - указаны скорость ветра в м/с - средняя за 10 мин, порывы в срок и между сроками (в фигурных скобках) и направление, откуда дует ветер: С - северный, СВ - северо-восточный, В - восточный, ЮВ - юго-восточный, Ю - южный, ЮЗ - юго-западный, З - западный, СЗ - северо-западный.
Видимость - горизонтальная дальность видимости в метрах или километрах. При видимости от 1 до 10 км при отсутствии осадков обычно наблюдается дымка, при ухудшении видимости до 1 км и менее - туман. В сухую погоду видимость может ухудшаться дымом, пылью или мглою.
Явления - указаны атмосферные явления, наблюдавшиеся в срок или в последний час перед сроком; фигурными скобками обозначены явления, наблюдавшиеся между сроками (за 1-3 часа до срока); квадратными скобками обозначены град или гололедные отложения с указанием их диаметра в мм.
Облачность - указаны через наклонную черту общая и нижняя облачность в баллах и высота нижней границы облаков в метрах; квадратными скобками обозначены формы облаков: Ci - перистые, Cs - перисто-слоистые, Cc - перисто-кучевые, Ac - высококучевые, As - высокослоистые, Sc - слоисто-кучевые, Ns - слоисто-дождевые, Cu - кучевые, Cb - кучево-дождевые. Подробнее классификацию облаков см. в Атласе облаков (PDF).
T - Температура воздуха - температура, измеренная на высоте 2 м над землей.
Td - Температура точки росы - температура, при понижении до которой содержащийся в воздухе водяной пар достигнет насыщения.
f - Относительная влажность воздуха - влажноcть воздуха, измеренная на высоте 2 м над землей.
Te - Эффективная температура - температура, которую ощущает одетый по сезону человек в тени. Характеристика душности погоды. При расчете учитывается влияние влажности воздуха и скорости ветра на теплоощущения человека.
Tes - Эффективная температура на солнце - температура, которую ощущает человек, с поправкой на солнечный нагрев. Характеристика знойности погоды. Зависит от высоты солнца над горизонтом, облачности и скорости ветра. Ночью, в пасмурную погоду, а также при ветре 12 м/с и более поправка равна нулю.
P - Атмосферное давление - приведенное к уровню моря атмосферное давление.
Po - Атмосферное давление - измеренное на уровне метеостанции атмосферное давление.
Tmin - Минимальная температура - минимум температуры воздуха на высоте 2 м над землей.
Tmax - Максимальная температура - максимум температуры воздуха на высоте 2 м над землей.
R - Количество осадков - Количество выпавших осадков за период времени, мм. При наведении курсора мыши на число - период времени, за который выпало указанное количество осадков.
R24 - Количество осадков - Количество выпавших осадков за 24 часа, мм.
S - Снежный покров - Высота снежного покрова, см. При наведении курсора мыши на число - состояние снежного покрова и степень покрытия местности в баллах.